Multibeam Report for NF-09-13-DSC


Ship Name: Nancy Foster
Chief Scientist:
Source Organization: National Oceanic and Atmospheric Administration (NOAA)
Start Date: 2009-08-30
End Date: 2009-09-02


View ISO Metadata

Visit the full NCEI Bathymetry Viewer


Multibeam Bathymetry

Cruise Details

Project:
Instrument: Simrad EM1002

Data Quality

Number of Files: 92
Number of Records: 144668
BATHYMETRY DATA Quantity Percentage
Number of Beams 16058148 100%
Number of Good Beams 15577566 97.01%
Number of Zero Beams 480582 2.99%
Number of Flagged Beams 0 0%
AMPLITUDE DATA Quantity Percentage
Number of Beams 16058148 100%
Number of Good Beams 15577566 97.01%
Number of Zero Beams 480582 2.99%
Number of Flagged Beams 0 0%
SIDESCAN DATA Quantity Percentage
Number of Pixels 148140032 100%
Number of Good Pixels 61534270 41.54%
Number of Zero Pixels 0 0%
Number of Flagged Pixels 86605762 58.46%

Navigation Totals

Total Time: 61.1623 hours
Total Track Length: 714.2473 km
Average Speed: 11.678 km/hr (6.3056 knots)

Cruise Bounds

Northern Extent: 28.8103
Southern Extent: 28.3058
Western Extent: -79.7826
Eastern Extent: -79.5937

Limits

Minimum Sonar Depth 1.07 Maximum Sonar Depth 6.07
Minimum Altitude 0 Maximum Altitude 836.48
Minimum Depth 385.85 Maximum Depth 1708.39
Minimum Amplitude 0 Maximum Amplitude 63.5
Minimum Sidescan 0 Maximum Sidescan 24

File Information

Full Resolution Bathymetry as collected (raw): 91

Files File Size Description
0001_20090903_034057_raw.all.mb56.gz 6.85MB Simrad multibeam vendor format
0002_20090903_040137_raw.all.mb56.gz 13.05MB Simrad multibeam vendor format
0003_20090903_044401_raw.all.mb56.gz 12.33MB Simrad multibeam vendor format
0004_20090903_053221_raw.all.mb56.gz 12.71MB Simrad multibeam vendor format
0005_20090903_061339_raw.all.mb56.gz 11.43MB Simrad multibeam vendor format
0006_20090903_073705_raw.all.mb56.gz 13.68MB Simrad multibeam vendor format
0007_20090903_082207_raw.all.mb56.gz 11.20MB Simrad multibeam vendor format
0008_20090903_085836_raw.all.mb56.gz 9.86MB Simrad multibeam vendor format
0009_20090903_093652_raw.all.mb56.gz 13.87MB Simrad multibeam vendor format
0010_20090903_101807_raw.all.mb56.gz 12.26MB Simrad multibeam vendor format
0011_20090903_120154_raw.all.mb56.gz 16.02MB Simrad multibeam vendor format
0012_20090903_130150_raw.all.mb56.gz 17.16MB Simrad multibeam vendor format
0013_20090903_140117_raw.all.mb56.gz 13.70MB Simrad multibeam vendor format
0014_20090903_144141_raw.all.mb56.gz 13.61MB Simrad multibeam vendor format
0015_20090903_160701_raw.all.mb56.gz 16.52MB Simrad multibeam vendor format
0016_20090903_165709_raw.all.mb56.gz 15.78MB Simrad multibeam vendor format
0017_20090903_175351_raw.all.mb56.gz 9.93MB Simrad multibeam vendor format
0018_20090903_182205_raw.all.mb56.gz 6.84MB Simrad multibeam vendor format
0019_20090903_184140_raw.all.mb56.gz 10.88MB Simrad multibeam vendor format
0020_20090903_200832_raw.all.mb56.gz 15.18MB Simrad multibeam vendor format
0021_20090903_205342_raw.all.mb56.gz 20.01MB Simrad multibeam vendor format
0022_20090903_221511_raw.all.mb56.gz 15.85MB Simrad multibeam vendor format
0023_20090903_230511_raw.all.mb56.gz 2.24MB Simrad multibeam vendor format
0024_20090904_072016_raw.all.mb56.gz 13.97MB Simrad multibeam vendor format
0025_20090904_081817_raw.all.mb56.gz 12.93MB Simrad multibeam vendor format
0026_20090904_091311_raw.all.mb56.gz 16.54MB Simrad multibeam vendor format
0027_20090904_101259_raw.all.mb56.gz 13.31MB Simrad multibeam vendor format
0028_20090904_120143_raw.all.mb56.gz 13.94MB Simrad multibeam vendor format
0029_20090904_130819_raw.all.mb56.gz 2.93MB Simrad multibeam vendor format
0030_20090904_132039_raw.all.mb56.gz 6.97MB Simrad multibeam vendor format
0031_20090904_140343_raw.all.mb56.gz 12.00MB Simrad multibeam vendor format
0032_20090904_150623_raw.all.mb56.gz 10.63MB Simrad multibeam vendor format
0033_20090904_164854_raw.all.mb56.gz 11.28MB Simrad multibeam vendor format
0034_20090904_175013_raw.all.mb56.gz 10.18MB Simrad multibeam vendor format
0035_20090904_184326_raw.all.mb56.gz 10.67MB Simrad multibeam vendor format
0036_20090904_193745_raw.all.mb56.gz 10.08MB Simrad multibeam vendor format
0037_20090904_212059_raw.all.mb56.gz 11.47MB Simrad multibeam vendor format
0038_20090904_221936_raw.all.mb56.gz 10.57MB Simrad multibeam vendor format
0039_20090904_231432_raw.all.mb56.gz 12.35MB Simrad multibeam vendor format
0040_20090905_001952_raw.all.mb56.gz 10.44MB Simrad multibeam vendor format
0041_20090905_022305_raw.all.mb56.gz 11.48MB Simrad multibeam vendor format
0042_20090905_032545_raw.all.mb56.gz 10.80MB Simrad multibeam vendor format
0043_20090905_042815_raw.all.mb56.gz 5.85MB Simrad multibeam vendor format
0044_20090905_051231_raw.all.mb56.gz 6.43MB Simrad multibeam vendor format
0045_20090905_063848_raw.all.mb56.gz 9.26MB Simrad multibeam vendor format
0046_20090905_071954_raw.all.mb56.gz 11.74MB Simrad multibeam vendor format
0047_20090905_081130_raw.all.mb56.gz 10.92MB Simrad multibeam vendor format
0048_20090905_091144_raw.all.mb56.gz 6.97MB Simrad multibeam vendor format
0049_20090905_094238_raw.all.mb56.gz 9.91MB Simrad multibeam vendor format
0050_20090905_102557_raw.all.mb56.gz 9.61MB Simrad multibeam vendor format
0051_20090905_120749_raw.all.mb56.gz 14.04MB Simrad multibeam vendor format
0052_20090905_131036_raw.all.mb56.gz 11.35MB Simrad multibeam vendor format
0053_20090905_140216_raw.all.mb56.gz 10.82MB Simrad multibeam vendor format
0054_20090905_150804_raw.all.mb56.gz 8.03MB Simrad multibeam vendor format
0055_20090905_164559_raw.all.mb56.gz 1.94MB Simrad multibeam vendor format
0056_20090905_165930_raw.all.mb56.gz 9.10MB Simrad multibeam vendor format
0057_20090905_174149_raw.all.mb56.gz 11.81MB Simrad multibeam vendor format
0058_20090905_184132_raw.all.mb56.gz 10.73MB Simrad multibeam vendor format
0059_20090905_192944_raw.all.mb56.gz 13.20MB Simrad multibeam vendor format
0060_20090905_212142_raw.all.mb56.gz 3.08MB Simrad multibeam vendor format
0061_20090905_213554_raw.all.mb56.gz 356.9KB Simrad multibeam vendor format
0062_20090905_214209_raw.all.mb56.gz 5.50MB Simrad multibeam vendor format
0063_20090905_221946_raw.all.mb56.gz 11.44MB Simrad multibeam vendor format
0064_20090905_232152_raw.all.mb56.gz 8.64MB Simrad multibeam vendor format
0065_20090906_000253_raw.all.mb56.gz 18.17MB Simrad multibeam vendor format
0066_20090906_013744_raw.all.mb56.gz 14.11MB Simrad multibeam vendor format
0067_20090906_024157_raw.all.mb56.gz 5.06MB Simrad multibeam vendor format
0068_20090906_040139_raw.all.mb56.gz 11.03MB Simrad multibeam vendor format
0069_20090906_045741_raw.all.mb56.gz 11.06MB Simrad multibeam vendor format
0070_20090906_055649_raw.all.mb56.gz 9.12MB Simrad multibeam vendor format
0071_20090906_064316_raw.all.mb56.gz 13.06MB Simrad multibeam vendor format
0072_20090906_074228_raw.all.mb56.gz 10.10MB Simrad multibeam vendor format
0073_20090906_083403_raw.all.mb56.gz 5.63MB Simrad multibeam vendor format
0074_20090906_085734_raw.all.mb56.gz 7.73MB Simrad multibeam vendor format
0075_20090906_094424_raw.all.mb56.gz 3.39MB Simrad multibeam vendor format
0076_20090906_100509_raw.all.mb56.gz 3.55MB Simrad multibeam vendor format
0077_20090906_102654_raw.all.mb56.gz 4.29MB Simrad multibeam vendor format
0078_20090906_105405_raw.all.mb56.gz 1.41MB Simrad multibeam vendor format
0079_20090906_110505_raw.all.mb56.gz 7.32MB Simrad multibeam vendor format
0080_20090906_141438_raw.all.mb56.gz 3.34MB Simrad multibeam vendor format
0081_20090906_145104_raw.all.mb56.gz 9.16MB Simrad multibeam vendor format
0082_20090906_153536_raw.all.mb56.gz 5.80MB Simrad multibeam vendor format
0083_20090906_161217_raw.all.mb56.gz 11.96MB Simrad multibeam vendor format
0084_20090906_172243_raw.all.mb56.gz 14.07MB Simrad multibeam vendor format
0085_20090906_193101_raw.all.mb56.gz 8.56MB Simrad multibeam vendor format
0086_20090906_201301_raw.all.mb56.gz 3.08MB Simrad multibeam vendor format
0087_20090906_203827_raw.all.mb56.gz 10.41MB Simrad multibeam vendor format
0088_20090906_213358_raw.all.mb56.gz 4.45MB Simrad multibeam vendor format
0089_20090906_220939_raw.all.mb56.gz 14.16MB Simrad multibeam vendor format
0090_20090906_232517_raw.all.mb56.gz 1.05MB Simrad multibeam vendor format
0091_20090906_235950_raw.all.mb56.gz 17.70MB Simrad multibeam vendor format

Metadata Files: 1

Files File Size Description
NF-09-13-DSC_Multibeam.xml NGDC created ISO metadata